Torna al catalogo

SL-12 DEB

LostHEO
NORAD 43580·DEBRIS·🇷🇺 Russia

Lanciato Mar 1, 2010 da Baikonur Cosmodrome

Loading…

Prossimi Passaggi (prossime 24 ore)

TLE

ObsoletoSource: Space-Track

Epoca: Aug 13, 2018, 21:02 UTC

1 43580U 10007AG  18225.87640833 +.00007309 +00000-0 +26374-1 0  9997
2 43580 065.9834 149.9469 5744646 040.4471 352.8664 04.17812154002374

Traccia SL-12 DEB in tempo reale con AllMySat

Download on the App Store